Wind_Speed
12 10 9 13 7 6 3 5 2 7 8 8 6 13 13 12 11 18 15 18 17 21 16 21 13 19 19 19 17 15 14 14 11 8 8 5 5 6 6 5 5 4 3 5
13 9 4 6 6 2 4 7 6 7 8 11 8 12 12 13 12 12 18 18 18 19 19 18 20 22 22 20 19 17 14 12 11 11 7 3 1 1 2 7 5 3 4 3
8 27 8 5 8 7 3 3 7 8 13 14 10 9 11 13 12 14 14 20 19 15 22 19 23 24 22 24 20 18 16 13 11 6 6 5 1 2 4 5 6 4 4 4
4 3 5 8 6 10 12 4 4 6 11 6 18 6 25 18 16 16 16 15 18 24 18 18 24 24 21 23 21 19 18 15 14 11 8 5 5 5 7 2 7 3 5 3
17 8 8 9 8 7 7 2 6 9 12 9 9 6 16 19 17 17 16 18 17 18 24 20 24 26 26 28 24 20 20 18 14 13 10 8 8 5 3 2 2 4 6 6
23 19 14 11 6 5 5 10 11 11 8 7 22 8 15 7 15 17 17 18 18 18 19 21 28 32 29 26 26 23 23 20 17 14 12 12 5 5 5 3 4 7 7 9
16 16 17 9 12 7 9 14 3 6 2 9 15 3 14 11 10 19 19 18 17 17 18 18 19 24 28 29 24 21 19 21 19 17 15 13 13 12 9 7 9 4 4 11
13 7 15 10 12 9 10 16 7 5 6 3 4 11 5 11 5 16 18 17 18 17 18 19 18 23 26 25 29 25 26 22 22 20 19 16 14 14 13 13 11 9 7 4
11 11 6 3 8 11 5 8 12 13 2 5 6 10 11 10 10 14 17 18 18 18 17 17 19 23 24 26 26 27 25 25 24 23 20 18 17 17 15 14 11 10 10 9
16 5 8 13 8 13 16 11 5 5 3 6 3 10 9 9 11 12 17 16 17 17 17 16 16 21 23 24 26 25 25 24 22 22 22 21 19 18 17 16 15 14 12 10
18 10 4 9 14 3 9 12 12 9 11 9 8 4 10 8 12 13 16 17 17 17 16 16 15 21 21 21 24 25 25 24 23 22 22 21 19 19 18 18 16 16 14 12
17 11 13 16 7 9 11 7 16 7 9 14 4 7 9 5 12 11 11 17 18 17 16 16 16 19 20 19 21 23 24 24 23 22 20 20 20 19 19 18 17 15 14 13
14 12 13 13 13 12 10 13 15 6 12 6 3 3 4 5 9 10 12 14 15 17 17 17 16 15 19 19 18 18 18 20 20 20 20 20 20 18 18 17 16 14 13 12
6 14 19 10 10 15 10 17 8 14 4 9 9 11 16 11 11 9 7 9 13 17 18 17 15 13 16 16 18 16 17 17 18 17 16 16 16 15 15 14 13 11 11 11
9 17 18 17 18 17 18 29 6 11 13 4 19 7 4 14 13 9 9 11 12 16 19 15 15 14 19 18 17 18 17 17 16 14 13 12 11 11 10 8 9 9 9 10
12 15 10 15 15 17 17 14 15 7 9 11 10 12 8 16 14 11 11 13 14 17 17 17 16 14 18 20 18 18 18 16 14 14 14 13 12 10 9 8 8 8 4 2
12 11 14 15 15 11 15 16 14 8 10 10 7 8 7 11 12 12 12 13 14 16 19 18 17 16 19 19 19 19 18 17 15 13 13 12 11 10 9 8 7 7 6 5
14 15 10 13 16 5 25 10 12 8 19 9 13 9 4 6 10 11 12 12 13 15 17 16 15 17 17 15 16 16 19 16 15 15 14 12 13 14 13 13 11 9 7 7
14 13 13 12 15 20 25 9 12 14 8 6 5 4 3 5 11 11 12 11 11 14 15 17 19 18 16 17 17 19 21 20 19 17 15 15 15 13 12 10 8 7 7 6
17 17 13 15 18 18 20 11 16 5 6 5 3 2 3 3 11 9 14 13 12 16 20 19 18 19 19 19 20 21 21 20 18 17 15 13 11 11 11 10 10 8 8 7
12 12 16 14 16 19 12 9 7 13 3 6 7 5 3 5 10 6 12 13 14 18 19 19 19 19 20 21 22 22 21 19 18 16 15 13 12 12 12 12 12 11 8 9
17 13 13 15 19 22 12 4 7 9 9 8 7 6 5 5 4 3 7 14 15 16 20 21 20 20 21 22 22 21 20 19 19 17 16 14 14 13 13 13 12 10 10 10
11 8 8 8 5 9 10 11 11 10 8 8 5 6 6 7 8 2 6 13 14 16 20 22 22 22 22 21 21 22 21 21 20 18 16 15 15 14 13 13 13 12 10 9
4 4 5 10 3 6 5 7 7 8 6 5 6 5 6 7 9 8 5 11 13 18 19 21 23 23 22 21 18 20 22 22 21 19 17 17 16 16 14 13 10 9 8 6
10 2 6 12 14 7 6 4 4 3 5 5 5 6 6 7 8 9 6 4 11 17 21 21 22 21 20 19 19 20 21 22 21 19 19 18 17 16 14 12 6 12 13 9
11 15 12 12 14 6 6 1 5 4 4 3 5 6 5 5 5 7 6 6 9 15 22 22 23 23 22 21 21 22 22 22 22 20 20 19 18 17 14 14 14 14 10 6
Wind_Direction
205 269 5 296 5 352 293 283 170 125 142 204 230 133 164 176 167 153 172 170 197 189 169 168 141 175 173 191 183 187 178 159 172 173 183 183 205 169 176 159 137 163 183 184
256 351 228 354 305 237 205 206 155 123 172 240 150 143 166 179 176 175 163 187 193 178 172 166 184 204 180 194 191 193 192 185 191 179 184 201 308 158 8 113 142 190 201 228
66 263 312 281 249 226 189 337 145 163 193 222 142 131 179 179 183 170 181 184 178 191 172 175 192 205 183 189 193 195 198 192 194 215 190 169 268 242 200 189 180 193 201 232
168 308 325 294 326 337 101 27 246 209 214 123 228 164 260 182 188 181 181 192 186 176 199 177 194 199 191 196 192 196 197 197 193 199 219 162 254 314 72 186 129 178 198 229
277 242 336 304 14 343 56 269 251 233 257 233 190 249 200 171 187 183 189 181 194 188 180 193 189 194 194 201 187 196 197 201 205 193 216 196 225 242 196 100 83 210 198 217
270 277 274 272 312 300 309 236 228 223 244 33 236 296 7 207 189 189 187 182 189 188 196 191 191 183 200 199 189 193 197 200 200 205 203 218 248 262 328 93 297 236 198 178
248 239 233 211 255 189 238 240 240 218 165 235 223 199 176 184 172 176 180 182 183 185 189 202 196 192 193 195 197 186 203 196 203 203 207 209 215 223 236 231 245 349 267 175
269 198 196 165 246 276 201 284 262 292 343 153 224 123 255 101 116 156 167 176 175 183 181 195 203 200 193 200 192 191 205 209 206 207 212 214 215 222 226 224 244 258 286 287
242 172 226 206 250 249 235 252 308 295 207 232 123 280 115 118 138 150 163 170 173 179 180 188 192 199 204 199 202 196 192 200 213 214 217 218 215 223 225 232 224 237 256 259
260 237 196 157 228 244 270 341 266 333 358 11 311 321 80 147 152 166 161 177 173 178 182 179 188 192 195 201 204 205 201 201 208 215 213 214 216 219 227 233 232 243 256 259
244 253 171 184 212 306 200 230 226 172 176 242 231 118 71 134 155 167 171 181 174 180 180 180 184 181 187 197 196 202 204 205 210 212 216 213 217 221 223 229 231 235 244 245
217 241 233 221 172 200 309 321 279 243 312 342 54 93 25 81 143 160 184 177 175 183 181 180 176 173 178 191 191 196 198 203 208 212 215 218 219 225 225 228 233 235 239 239
212 234 257 247 208 182 233 255 268 282 272 259 325 155 226 188 130 165 171 179 182 184 186 177 174 177 174 185 191 194 196 198 209 205 206 214 213 218 227 232 234 236 229 227
307 234 247 266 40 360 323 267 266 292 309 23 14 128 205 148 132 148 157 165 186 188 186 178 178 176 183 190 191 196 196 198 198 202 204 202 216 214 222 216 221 222 223 232
246 252 267 273 122 234 251 244 246 231 303 41 228 342 31 116 125 149 157 166 181 191 184 180 189 168 190 193 201 194 207 196 196 196 193 197 202 209 207 212 214 224 234 247
233 269 286 287 297 203 239 271 219 234 276 287 329 298 104 100 117 152 163 172 176 188 182 189 201 177 191 187 197 187 199 190 186 174 197 185 188 188 194 207 219 224 217 187
242 237 257 271 280 290 231 251 236 271 248 285 295 47 13 116 144 162 171 180 181 189 185 185 192 188 191 176 185 183 188 178 179 176 179 171 181 177 168 163 160 147 129 118
273 283 271 272 276 141 281 71 1 127 257 339 337 79 2 144 154 158 166 177 184 186 190 183 194 184 188 179 172 180 181 172 163 162 158 153 144 143 141 134 124 120 113 102
237 255 275 272 274 282 213 202 223 241 97 48 337 354 38 253 134 155 166 177 182 185 189 189 187 183 172 151 150 154 152 153 151 149 140 145 146 144 141 137 133 133 126 114
240 244 243 254 265 239 268 75 357 316 252 47 35 68 330 215 208 154 174 172 169 170 181 178 172 165 152 150 154 152 146 144 145 144 141 143 144 140 135 134 133 127 128 126
221 235 258 243 255 269 29 80 202 227 116 99 63 31 325 276 38 31 169 172 169 171 166 167 167 163 160 161 160 152 145 144 141 141 139 138 137 132 132 128 126 128 115 114
270 276 249 239 255 248 8 291 306 94 103 84 75 50 1 334 328 271 217 177 174 172 164 165 165 161 163 163 160 151 144 139 138 139 137 138 138 135 131 126 122 122 124 118
256 302 318 328 21 46 35 51 46 54 85 79 59 46 10 10 355 307 190 178 178 175 166 170 168 162 166 166 164 151 141 142 141 140 140 141 132 129 129 128 129 132 144 145
233 85 267 309 195 88 81 78 53 35 59 50 56 31 21 6 23 5 235 183 184 177 171 179 170 169 168 167 162 150 148 147 143 141 143 141 139 137 135 139 148 144 146 151
283 155 272 264 267 270 221 168 79 38 23 24 19 10 15 353 19 5 353 277 198 183 177 186 176 175 167 161 157 156 153 150 146 148 150 153 149 149 139 91 75 100 64 53
262 264 262 259 269 314 319 136 90 310 317 331 338 336 346 329 347 353 360 309 267 213 182 189 180 173 165 164 159 159 158 156 154 157 163 161 160 160 142 135 91 97 93 95
Height
731 737 785 730 722 721 726 728 732 724 721 729 730 741 748 746 748 754 767 775 775 774 776 785 795 802 806 808 812 814 818 822 827 829 831 830 830 832 834 835 837 838 838 838
737 784 725 717 714 720 723 728 729 724 720 726 730 738 744 747 748 747 757 766 767 768 776 785 796 797 802 807 809 814 817 822 826 827 829 830 831 831 833 834 836 836 838 838
773 754 719 720 717 719 724 723 726 725 719 717 726 745 751 745 744 744 744 750 757 767 772 783 791 791 796 803 807 813 817 821 826 827 830 832 833 833 833 834 834 836 837 837
738 717 726 720 720 714 727 711 714 718 727 794 720 823 804 744 747 745 744 746 747 759 766 774 783 787 795 797 805 810 815 820 824 827 827 830 830 829 830 831 831 834 836 836
745 726 725 729 720 713 727 710 712 711 715 712 723 725 762 734 750 745 738 741 743 747 758 768 777 784 790 791 800 806 812 817 820 824 827 829 830 827 828 829 831 833 834 834
732 710 719 717 708 707 706 712 710 707 710 803 788 726 787 734 734 733 731 732 738 743 750 757 765 774 782 784 792 800 807 813 818 822 825 828 829 828 828 829 830 829 829 830
725 717 701 701 718 704 711 715 781 755 761 772 714 714 751 710 705 714 723 726 733 739 749 754 757 764 773 780 788 795 803 809 814 818 821 824 827 828 828 829 827 827 827 828
751 746 705 696 710 712 712 709 740 762 751 741 703 744 742 695 693 696 708 718 727 735 741 751 756 762 768 775 783 795 802 805 810 814 817 820 823 824 825 826 825 824 824 825
729 755 696 697 693 699 709 725 688 712 699 723 751 731 705 697 701 701 710 716 726 732 736 746 753 759 765 772 779 786 794 801 806 810 814 816 818 820 820 821 822 824 825 825
709 738 700 695 694 694 700 692 723 712 766 762 754 742 741 721 713 707 714 719 723 727 732 740 747 755 762 769 776 783 789 795 801 805 808 811 813 815 818 819 820 822 822 823
703 711 716 700 709 722 711 714 704 714 735 755 744 749 696 710 708 708 708 714 720 726 729 736 743 751 760 766 772 778 785 791 796 800 802 805 808 810 813 814 816 818 820 821
699 706 724 711 682 680 687 699 702 723 743 731 716 755 703 697 698 703 704 707 714 721 725 731 739 747 755 762 767 773 779 785 790 794 798 800 803 806 807 810 812 814 815 817
695 717 729 723 697 684 703 693 685 695 686 713 725 760 706 699 697 700 704 708 712 720 723 729 737 745 753 761 765 770 775 780 784 788 792 795 798 802 805 806 809 810 812 814
695 702 709 729 729 722 721 701 688 691 715 734 767 733 708 702 704 705 705 706 712 719 722 725 734 744 752 758 763 769 773 776 781 783 787 790 795 797 800 802 805 808 810 811
703 714 698 691 701 715 710 712 694 703 698 726 754 727 695 692 698 704 706 712 717 721 720 726 732 741 751 757 761 767 771 774 776 783 786 790 794 796 799 801 803 806 808 809
691 714 705 707 689 692 705 689 690 692 695 698 699 703 673 679 690 705 709 713 719 723 724 728 733 740 745 751 759 764 770 772 777 782 786 789 794 796 799 802 804 804 806 807
694 701 712 729 697 695 717 696 692 691 686 691 710 707 684 695 701 705 710 712 717 719 722 726 732 737 742 748 757 762 768 773 778 782 787 790 794 796 798 801 803 804 806 808
705 703 705 720 709 776 704 675 685 707 707 688 688 689 691 687 692 697 702 709 714 716 720 724 729 733 738 743 751 759 766 771 778 783 787 790 794 797 800 802 803 805 807 809
690 706 721 732 730 703 691 679 695 698 706 696 699 690 692 688 690 702 699 704 710 716 720 726 729 734 739 748 757 762 768 773 778 783 788 793 796 799 802 804 805 807 809 811
687 686 710 719 732 748 700 686 680 680 717 702 700 704 703 692 711 701 696 701 707 714 718 724 730 736 744 753 760 765 769 774 780 785 790 795 798 801 803 805 807 809 811 813
706 708 716 716 724 708 693 684 686 726 726 707 705 710 709 705 701 699 694 701 706 712 718 725 732 738 747 755 761 765 770 775 781 787 792 796 800 802 805 807 809 811 813 814
711 716 713 710 723 731 697 696 715 714 706 709 713 715 714 708 703 702 695 701 706 711 718 727 735 742 750 755 761 766 771 778 783 789 793 798 801 803 807 809 811 813 815 816
726 715 728 725 725 716 710 714 709 706 717 718 719 718 717 713 711 705 698 702 707 713 720 727 735 744 751 757 761 766 773 779 785 790 795 799 802 805 808 810 812 814 815 815
711 720 732 728 709 720 721 722 722 721 723 721 721 722 721 719 716 707 703 703 707 713 721 728 735 743 751 758 765 770 775 780 785 791 796 800 804 806 809 811 812 812 812 814
719 724 732 727 717 718 721 722 727 727 728 727 726 727 727 725 722 719 712 707 708 712 720 728 735 745 752 760 767 773 777 781 786 792 797 801 804 806 809 810 811 814 816 816
724 728 734 734 720 722 720 717 726 732 731 731 732 732 730 730 728 725 721 718 713 712 717 726 732 742 753 760 767 772 776 781 786 791 796 798 802 805 807 811 815 817 819 821